Iron Mountain, MI

8:48 AM CDT on September 26, 2017 (GMT -0500)
Ford

Weather History for KIMT - November, 2013

Change the Weather History Date:

Saturday, November 30, 2013

  Actual Average Record
Temperature  
Mean Temperature 30 °F -  
Max Temperature 35 °F 34 °F 57 °F (1951)
Min Temperature 26 °F 16 °F -10 °F (1976)
Degree Days  
Heating Degree Days 34    
Moisture  
Dew Point 22 °F    
Average Humidity 72    
Maximum Humidity 82    
Minimum Humidity 61    
Precipitation  
Precipitation 0.00 in - - ()
Sea Level Pressure  
Sea Level Pressure 30.11 in    
Wind  
Wind Speed 6 mph (SSW)    
Max Wind Speed 12 mph    
Max Gust Speed 18 mph    
Visibility 9 miles    
Events      
Averages and records for this station are not official NWS values.
T = Trace of Precipitation, MM = Missing Value Source: NWS Daily Summary

Daily Weather History Graph

Daily Weather History Graph

Search for Another Location

Airport or City:

Trip Planner

Search our weather history database for the weather conditions in past years. The results will help you decide how hot, cold, wet, or windy it might be!

Date:

Astronomy

Nov. 30, 2013 Rise Set
Actual Time 7:12 AM CST 4:09 PM CST
Civil Twilight 6:38 AM CST 4:43 PM CST
Nautical Twilight 6:01 AM CST 5:20 PM CST
Astronomical Twilight 5:25 AM CST 5:56 PM CST
Moon 4:15 AM CST (11/30) 2:39 PM CST (11/30)
Length of Visible Light 10h 04m
Length of Day
8h 57m
Waning Crescent, 7% of the Moon is Illuminated
Nov 30
Waning Crescent
Dec 2
New
Dec 9
First Quarter
Dec 17
Full
Dec 25
Last Quarter

Hourly Weather History & Observations

Time (CST) Temp. Windchill Dew Point Humidity Pressure Visibility Wind Dir Wind Speed Gust Speed Precip Events Conditions
12:54 AM 26.1 °F 16.8 °F 17.1 °F 69% 30.30 in 10.0 mi South 9.2 mph - N/A   Overcast
1:54 AM 26.1 °F 17.6 °F 18.0 °F 71% 30.27 in 10.0 mi South 8.1 mph - N/A   Overcast
2:54 AM 26.1 °F 18.4 °F 19.0 °F 75% 30.23 in 9.0 mi South 6.9 mph 18.4 mph N/A   Overcast
3:54 AM 26.1 °F 15.6 °F 19.0 °F 75% 30.21 in 8.0 mi South 11.5 mph - N/A   Overcast
4:54 AM 26.1 °F 17.6 °F 19.0 °F 75% 30.19 in 8.0 mi South 8.1 mph - N/A   Overcast
5:54 AM 26.1 °F 17.6 °F 19.0 °F 75% 30.17 in 8.0 mi South 8.1 mph - N/A   Overcast
6:54 AM 27.0 °F 19.5 °F 19.9 °F 75% 30.14 in 7.0 mi South 6.9 mph - N/A   Overcast
7:54 AM 27.0 °F 19.5 °F 19.9 °F 75% 30.13 in 6.0 mi South 6.9 mph - N/A   Haze
8:54 AM 28.0 °F 21.7 °F 21.0 °F 75% 30.12 in 6.0 mi South 5.8 mph - N/A   Haze
9:54 AM 28.9 °F 25.2 °F 21.0 °F 72% 30.11 in 7.0 mi SSW 3.5 mph - N/A   Mostly Cloudy
10:54 AM 30.9 °F 27.5 °F 21.9 °F 69% 30.08 in 8.0 mi SSW 3.5 mph - N/A   Mostly Cloudy
11:54 AM 33.1 °F - 23.0 °F 66% 30.06 in 8.0 mi Calm Calm - N/A   Overcast
12:54 PM 34.0 °F - 23.0 °F 64% 30.05 in 9.0 mi Calm Calm - N/A   Clear
1:54 PM 34.0 °F - 23.0 °F 64% 30.03 in 9.0 mi Calm Calm - N/A   Clear
2:54 PM 35.1 °F - 23.0 °F 61% 30.04 in 9.0 mi Calm Calm - N/A   Clear
3:54 PM 33.1 °F 30.0 °F 23.0 °F 66% 30.05 in 9.0 mi NE 3.5 mph - N/A   Overcast
4:54 PM 32.0 °F 28.7 °F 23.0 °F 69% 30.07 in 10.0 mi NNE 3.5 mph - N/A   Overcast
5:54 PM 32.0 °F 27.5 °F 23.0 °F 69% 30.08 in 10.0 mi NNE 4.6 mph - N/A   Overcast
6:06 PM 32.0 °F 28.7 °F 23.0 °F 69% 30.04 in 9.0 mi North 3.5 mph - N/A   Overcast
6:54 PM 32.0 °F - 23.0 °F 69% 30.09 in 10.0 mi Calm Calm - N/A   Overcast
7:54 PM 30.9 °F - 25.0 °F 79% 30.10 in 10.0 mi Calm Calm - N/A   Overcast
8:24 PM 30.2 °F - 24.8 °F 80% 30.05 in 10.0 mi Calm Calm - N/A   Overcast
8:54 PM 30.0 °F 26.5 °F 25.0 °F 82% 30.10 in 9.0 mi NNW 3.5 mph - N/A   Overcast
9:54 PM 30.9 °F - 24.1 °F 76% 30.10 in 9.0 mi Calm Calm - N/A   Overcast
10:54 PM 30.9 °F 26.2 °F 24.1 °F 76% 30.11 in 9.0 mi NNW 4.6 mph - N/A   Overcast
11:08 PM 30.2 °F 25.4 °F 24.8 °F 80% 30.06 in 8.0 mi NNW 4.6 mph - N/A   Overcast
11:54 PM 30.9 °F 25.2 °F 25.0 °F 79% 30.11 in 7.0 mi NNW 5.8 mph - N/A   Overcast